Terminal Aerodrome Forecast
Issued by NWS

Home | Current Version | Previous Version | Text Only | Print | Product List | Glossary On
Versions: 1 2 3 4 5 6 7 8 9 10 11 12 13 14
000
FTUS42 TJSJ 261144
TAFNCM
TAF
TNCM 261144Z 2612/2712 09010KT P6SM VCSH SCT017 SCT040
     FM261300 10012KT P6SM VCSH FEW018 SCT025
     FM262300 09010KT P6SM FEW018=

USA.gov is the U.S. government's official web portal to all federal, state and local government web resources and services.